Location: Alpino
(32.5215°N, 116.5815°W)
Time: 09:05:05
(UTC+00:00)

Chandra Rocket (1) - Pass Details

Date: 13 April 2024
Orbit: 293 x 10893 km, 28.4° (Epoch: 22 May)

Event Time Altitude Azimuth Distance (km) Brightness Sun altitude
Exits shadow 12:30:22 15° 246° (WSW) 1,381 3.2 -10.7°
Maximum altitude 12:32:59 55° 171° (S) 873 2.8 -10.1°
Drops below altitude 10° 12:41:43 10° 96° (E) 4,312 7.6 -8.4°
Sets 12:48:17 0° 93° (E) 6,898 9.0 -7.0°
